RH
71 71 70 67 58 62 67 64 70 75 71 69 62 59 62 67 66 66 68 71 68 66
65 66 61 64 63 60 60 54 66 63 62 60 58 56 60 64 63 63 68 70 71 74
59 60 58 60 63 63 61 57 58 60 59 57 56 56 56 57 57 60 68 79 84 83
58 60 61 62 63 61 61 57 55 55 55 54 53 52 56 58 57 61 72 85 85 92
61 57 64 66 65 66 62 58 54 53 51 51 52 53 56 61 74 86 88 89 96 94
66 62 60 60 60 58 57 55 53 52 54 52 54 52 56 72 84 81 69 84 96 95
64 64 61 58 57 58 55 54 53 55 56 57 54 54 65 70 79 76 80 88 96 95
60 58 58 60 59 58 58 54 53 60 59 60 59 61 73 78 79 84 87 94 95 94
56 57 58 58 61 60 61 58 57 58 61 64 61 91 100 88 84 91 94 97 98 98
57 58 59 56 57 60 61 63 63 64 62 62 62 100 100 100 85 93 95 96 98 97
56 57 56 58 59 61 62 66 68 67 63 63 71 100 100 100 98 99 97 96 94 92
53 55 56 58 62 61 66 72 72 81 86 94 99 100 100 99 97 96 95 92 91 89
51 55 58 60 63 84 83 93 98 99 99 100 99 99 98 94 93 95 95 91 95 94
55 64 72 82 90 96 97 98 98 98 98 97 97 97 95 93 92 92 91 91 93 94
Wind_Speed
16 11 14 18 16 13 12 14 16 14 14 15 15 14 12 11 10 11 10 14 13 10
18 19 17 19 18 15 17 15 17 20 19 19 18 18 15 12 12 12 13 13 13 10
20 21 19 17 19 18 17 19 19 19 19 19 17 17 17 14 15 15 12 8 12 11
20 22 20 17 18 19 18 20 20 20 19 19 19 19 17 18 17 16 12 12 12 11
19 21 20 20 20 19 20 19 20 20 21 21 20 19 19 18 13 12 12 12 11 13
19 21 22 23 21 21 21 21 21 21 21 21 20 20 18 16 15 14 17 12 12 14
22 22 21 20 21 20 20 21 21 20 19 19 19 19 18 18 15 14 13 11 11 12
21 20 20 20 21 20 20 20 21 18 20 19 18 14 15 14 15 14 13 10 10 10
20 20 21 20 19 19 19 20 20 20 19 18 12 13 16 15 13 12 11 9 6 5
20 20 20 19 19 19 19 18 19 17 18 19 18 14 16 16 11 10 11 11 9 7
19 18 18 18 19 19 17 17 15 16 17 16 12 13 16 16 8 6 8 9 10 10
19 18 18 18 17 15 14 13 14 10 12 13 6 10 13 12 8 9 9 8 9 10
16 16 17 16 13 8 8 6 4 5 3 5 5 11 16 14 9 11 9 9 10 14
13 11 10 10 7 8 8 9 7 8 7 7 7 8 13 14 9 9 9 8 7 7
Wind_Direction
183 183 189 194 189 188 192 193 202 207 213 221 227 234 234 238 236 229 228 227 224 232
194 194 196 192 193 192 194 195 200 207 209 215 218 224 228 228 229 226 234 232 233 225
196 199 201 194 197 196 198 202 200 203 210 212 216 223 229 231 232 236 233 226 222 217
199 197 200 200 197 202 201 202 206 209 214 218 222 225 229 233 237 235 234 221 226 220
200 203 206 208 207 204 209 209 212 216 220 223 227 230 232 233 224 224 216 231 216 215
203 203 208 212 215 214 218 220 220 222 225 226 230 232 233 225 215 222 237 234 224 218
207 208 209 210 212 215 218 220 223 223 226 228 228 225 220 223 230 236 234 225 208 208
209 214 216 215 214 213 213 218 220 218 221 223 224 223 216 208 219 226 221 211 207 208
210 210 214 214 217 219 216 218 221 222 221 219 222 211 210 205 216 203 203 189 178 174
211 213 214 214 213 218 220 218 223 224 223 228 227 193 202 198 217 198 191 170 156 143
208 211 210 211 214 214 215 217 223 228 230 233 231 184 196 197 197 164 153 155 159 144
203 205 207 208 210 212 211 208 215 215 219 218 200 181 153 136 126 117 114 118 131 134
200 203 205 204 198 167 182 188 121 92 95 120 128 157 151 139 132 129 123 114 110 116
190 183 179 174 162 144 127 113 98 88 70 77 99 119 129 130 128 135 125 116 111 120